Hourly Data Report for January 25, 2003

TORONTO CITY
ONTARIO

43°40'00.000" N
79°24'00.000" W
112.50 m
6158355
71508
XTO

Download Data

Hourly Data (January 2003)
Hourly Data Report for January 25, 2003
TIME
LST
Temp Definition
°C
Dew Point Definition
°C
Rel Hum Definition
%
Precip. Amount Definition
mm

Wind Dir Definition
10's deg

Wind Spd Definition
km/h
Visibility Definition
km
Stn Press Definition
kPa
Hmdx Definition


Wind Chill Definition


Weather Definition


00:00
01:00
02:00 -6.4 -10.4 73     0 LegendMM 100.81     LegendNANA
03:00 -6.8 -10.7 74     0 LegendMM 100.73     LegendNANA
04:00 -7.1 -11.7 70     0 LegendMM 100.76     LegendNANA
05:00 -7.6 -12.0 71     0 LegendMM 100.69     LegendNANA
06:00 -8.0 -12.8 68     0 LegendMM 100.73     LegendNANA
07:00 -8.5 -13.4 68     0 LegendMM 100.72     LegendNANA
08:00 -8.6 -13.2 69     0 LegendMM 100.68     LegendNANA
09:00 -8.2 -12.8 69     0 LegendMM 100.69     LegendNANA
10:00 -7.8 -11.9 72     0 LegendMM 100.64     LegendNANA
11:00 -7.4 -11.8 71     0 LegendMM 100.60     LegendNANA
12:00 -7.0 -11.8 69     0 LegendMM 100.50     LegendNANA
13:00 -6.0 -11.8 63     0 LegendMM 100.44     LegendNANA
14:00 -5.4 -11.2 64     0 LegendMM 100.37     LegendNANA
15:00 -5.1 -10.7 65     0 LegendMM 100.34     LegendNANA
16:00 -5.1 -11.1 63     0 LegendMM 100.29     LegendNANA
17:00 -5.0 -10.6 65     0 LegendMM 100.30     LegendNANA
18:00 -5.0 -9.7 70     0 LegendMM 100.30     LegendNANA
19:00
20:00 -5.2 -8.5 78     0 LegendMM 100.29     LegendNANA
21:00 -5.6 -7.8 84     0 LegendMM 100.26     LegendNANA
22:00 -5.7 -8.4 81     0 LegendMM 100.25     LegendNANA
23:00 -5.5 -7.6 85     0 LegendMM 100.22     LegendNANA

Notes on Data Quality.

Legend

  • E = Estimated
  • M = Missing
  • NA = Not Available*
  • [empty] = Indicates an unobserved value
Date modified: